OneWeb SL0223

operational
NORAD ID: 48768 Int'l Des: 2021-045 Owner: ONEWEBN Country: UK Constellation: oneweb
LEOCIRCULARPOLARONEWEB_TYPE

About OneWeb SL0223

Description loading...

Live Position

Loading 3D Globe...

Upcoming Passes

Altitude History

Altitude vs Time

uPlot chart will show altitude changes over time

Two-Line Element Set

1 48768U 21045B 25258.55025103 .00000002 00000-0 -29405-4 0 9995
2 48768 87.9026 313.9867 0001401 99.5583 260.5706 13.15549293208298
Epoch: Sep 15, 2025 • Age: 13 hours

Current Status

Altitude 1203.9 km
Velocity 7.25 km/s
Sub-Earth Point 9.86°N, 71.54°W
Launch Date May 28, 2021
Age 4.3 years
Type internet

Technical Details

Classification Payload
Mass 148.00 kg
Dry Mass 140.00 kg
Total Mass 148.00 kg
Length 1.30 m
Diameter 1.00 m
Span 5.00 m
Shape Trapezoid+2 pan
Manufacturer ONEWUS
Bus Type ARROW
Phase Status In Orbit
Owner/State ONEWEBN/UK

Large Constellations

Loading constellations...